Zurück zum Katalog

THORAD DELTA 1 DEB

AktivSSO
NORAD 8400·DEBRIS·🇺🇸 United States

Gestartet Nov 15, 1974 von Vandenberg Space Force Base

Loading…

Nächste Überflüge (nächste 24 Stunden)

TLE

AktuellSource: Space-Track

Epoche: Sep 14, 2026, 09:54 UTC

1 08400U 74089CC  26257.41262812  .00000016  00000-0  42275-3 0  9998
2 08400 101.7998 219.2739 0052045   3.3232 148.9422 12.44970236356182

Verfolge THORAD DELTA 1 DEB in Echtzeit mit AllMySat

Download on the App Store